St. Paul, MN

12:50 PM CDT on May 21, 2018 (GMT -0500)
Saint Paul Downtown-Holman

Weather History for KSTP - January, 2014

Change the Weather History Date:

Sunday, January 26, 2014

  Actual Average Record
Temperature  
Mean Temperature 6 °F -  
Max Temperature 18 °F 23 °F 46 °F (2002)
Min Temperature -6 °F 8 °F -11 °F (1997)
Degree Days  
Heating Degree Days 58    
Moisture  
Dew Point -1 °F    
Average Humidity 72    
Maximum Humidity 85    
Minimum Humidity 56    
Precipitation  
Precipitation 0.03 in - - ()
Sea Level Pressure  
Sea Level Pressure 29.60 in    
Wind  
Wind Speed 12 mph (WNW)    
Max Wind Speed 33 mph    
Max Gust Speed 50 mph    
Visibility 6 miles    
Events Snow    
Averages and records for this station are not official NWS values.
T = Trace of Precipitation, MM = Missing Value Source: NWS Daily Summary

Daily Weather History Graph

Daily Weather History Graph

Search for Another Location

Airport or City:

Astronomy

Jan. 26, 2014 Rise Set
Actual Time 7:38 AM CST 5:11 PM CST
Civil Twilight 7:06 AM CST 5:43 PM CST
Nautical Twilight 6:30 AM CST 6:19 PM CST
Astronomical Twilight 5:56 AM CST 6:53 PM CST
Moon 3:17 AM CST (1/26) 1:00 PM CST (1/26)
Length of Visible Light 10h 37m
Length of Day
9h 33m
Waning Crescent, 23% of the Moon is Illuminated
Jan 26
Waning Crescent
Jan 30
New
Feb 6
First Quarter
Feb 14
Full
Feb 22
Last Quarter

Hourly Weather History & Observations

Time (CST) Temp. Windchill Dew Point Humidity Pressure Visibility Wind Dir Wind Speed Gust Speed Precip Events Conditions
12:12 AM 5.0 °F -9.1 °F 1.4 °F 85% 29.54 in 1.0 mi ESE 9.2 mph - 0.00 in Snow Light Snow
12:21 AM 6.8 °F -5.9 °F 1.4 °F 79% 29.53 in 1.5 mi ESE 8.1 mph - 0.01 in Snow Light Snow
12:32 AM 6.8 °F -5.9 °F 1.4 °F 79% 29.52 in 2.5 mi ESE 8.1 mph - 0.01 in Snow Light Snow
12:34 AM 6.8 °F -5.9 °F 1.4 °F 79% 29.52 in 3.0 mi ESE 8.1 mph - 0.01 in Snow Light Snow
12:40 AM 6.8 °F -4.8 °F 1.4 °F 79% 29.52 in 2.5 mi ESE 6.9 mph - 0.01 in Snow Light Snow
12:48 AM 6.8 °F -4.8 °F 1.4 °F 79% 29.52 in 2.0 mi ESE 6.9 mph - 0.01 in Snow Light Snow
12:53 AM 6.1 °F -5.6 °F 1.9 °F 83% 29.56 in 3.0 mi ESE 6.9 mph - 0.01 in Snow Light Snow
1:53 AM 7.0 °F -4.5 °F 1.9 °F 80% 29.50 in 5.0 mi ESE 6.9 mph - 0.01 in Snow Light Snow
2:13 AM 6.8 °F -5.9 °F 1.4 °F 79% 29.46 in 2.0 mi ESE 8.1 mph - 0.00 in Snow Light Snow
2:29 AM 6.8 °F -4.8 °F 1.4 °F 79% 29.46 in 1.2 mi ESE 6.9 mph - 0.01 in Snow Light Snow
2:37 AM 6.8 °F -3.5 °F 3.2 °F 85% 29.46 in 1.0 mi East 5.8 mph - 0.01 in Snow Light Snow
2:46 AM 6.8 °F -3.5 °F 1.4 °F 79% 29.45 in 1.5 mi East 5.8 mph - 0.01 in Snow Light Snow
2:53 AM 7.0 °F -5.7 °F 1.9 °F 80% 29.47 in 1.8 mi East 8.1 mph - 0.01 in Snow Light Snow
2:55 AM 6.8 °F -4.8 °F 1.4 °F 79% 29.43 in 2.0 mi East 6.9 mph - 0.00 in Snow Light Snow
3:04 AM 6.8 °F -6.9 °F 1.4 °F 79% 29.42 in 4.0 mi ESE 9.2 mph - 0.00 in Snow Light Snow
3:13 AM 6.8 °F -5.9 °F 1.4 °F 79% 29.41 in 4.0 mi ESE 8.1 mph - 0.00 in Snow Light Snow
3:53 AM 7.0 °F -7.5 °F 1.0 °F 77% 29.44 in 9.0 mi ESE 10.4 mph - 0.00 in   Overcast
4:53 AM 7.0 °F - 1.9 °F 80% 29.48 in 10.0 mi Calm Calm - N/A   Overcast
5:53 AM 7.0 °F -1.7 °F 1.9 °F 80% 29.45 in 10.0 mi ENE 4.6 mph - N/A   Overcast
6:34 AM 6.8 °F - 1.4 °F 79% 29.41 in 10.0 mi Calm Calm - N/A   Overcast
6:53 AM 7.0 °F - 1.0 °F 77% 29.48 in 10.0 mi Calm Calm - N/A   Overcast
7:37 AM 8.6 °F 0.1 °F 3.2 °F 79% 29.43 in 2.5 mi WSW 4.6 mph - 0.00 in Snow Light Snow
7:53 AM 8.1 °F -0.5 °F 3.0 °F 80% 29.47 in 2.5 mi WSW 4.6 mph - 0.00 in Snow Light Snow
8:00 AM 8.6 °F 2.0 °F 3.2 °F 79% 29.43 in 8.0 mi SW 3.5 mph - 0.00 in   Overcast
8:53 AM 10.9 °F -5.9 °F 6.1 °F 81% 29.46 in 4.0 mi West 16.1 mph - 0.00 in Snow Light Snow
9:08 AM 10.4 °F -6.6 °F 6.8 °F 85% 29.43 in 2.0 mi West 16.1 mph 23.0 mph 0.00 in Snow Light Snow
9:35 AM 10.4 °F -4.8 °F 6.8 °F 85% 29.41 in 3.0 mi West 12.7 mph 20.7 mph 0.00 in Snow Light Snow
9:53 AM 12.0 °F -2.7 °F 6.1 °F 77% 29.47 in 3.0 mi WNW 12.7 mph 20.7 mph 0.00 in Snow Light Snow
10:00 AM 12.2 °F -2.5 °F 6.8 °F 79% 29.42 in 5.0 mi WNW 12.7 mph 19.6 mph 0.00 in Snow Light Snow
10:53 AM 14.0 °F -3.4 °F 7.0 °F 74% 29.47 in 10.0 mi WNW 19.6 mph 26.5 mph 0.00 in   Overcast
11:08 AM 15.8 °F -0.6 °F 6.8 °F 68% 29.44 in 10.0 mi WNW 18.4 mph 26.5 mph N/A   Overcast
11:53 AM 17.1 °F 2.5 °F 8.1 °F 68% 29.46 in 9.0 mi WNW 15.0 mph 23.0 mph N/A   Overcast
12:53 PM 18.0 °F -0.5 °F 6.1 °F 60% 29.47 in 9.0 mi WNW 26.5 mph 35.7 mph 0.00 in   Scattered Clouds
1:46 PM 15.8 °F -5.2 °F 3.2 °F 58% 29.48 in 9.0 mi WNW 33.4 mph 42.6 mph 0.00 in   Scattered Clouds
1:53 PM 15.1 °F -2.0 °F 1.9 °F 56% 29.52 in 9.0 mi WNW 19.6 mph 43.7 mph 0.00 in   Partly Cloudy
2:53 PM 12.0 °F -8.5 °F -0.0 °F 59% 29.57 in 9.0 mi NW 26.5 mph 36.8 mph N/A   Scattered Clouds
3:07 PM 10.4 °F -11.4 °F -0.4 °F 62% 29.55 in 2.5 mi WNW 28.8 mph 38.0 mph N/A Snow Blowing Snow
3:26 PM 8.6 °F -12.7 °F -2.2 °F 62% 29.57 in 9.0 mi WNW 25.3 mph 34.5 mph N/A   Clear
3:34 PM 8.6 °F -13.1 °F -4.0 °F 57% 29.57 in 9.0 mi WNW 26.5 mph 48.3 mph N/A   Partly Cloudy
3:53 PM 7.0 °F -16.0 °F -5.1 °F 58% 29.64 in 9.0 mi WNW 28.8 mph 49.5 mph N/A Snow Blowing Snow
4:53 PM 3.0 °F -22.1 °F -7.1 °F 63% 29.73 in 8.0 mi NW 31.1 mph 44.9 mph N/A Snow Blowing Snow
5:00 PM 3.2 °F -21.5 °F -7.6 °F 61% 29.69 in 8.0 mi WNW 29.9 mph 44.9 mph N/A Snow Blowing Snow
5:12 PM 3.2 °F -19.9 °F -7.6 °F 61% 29.71 in 8.0 mi WNW 25.3 mph 34.5 mph N/A Snow Blowing Snow
5:53 PM 1.9 °F -22.4 °F -7.1 °F 66% 29.80 in 8.0 mi WNW 27.6 mph 36.8 mph N/A Snow Blowing Snow
6:12 PM 1.4 °F -21.4 °F -7.6 °F 66% 29.78 in 2.5 mi WNW 23.0 mph 36.8 mph N/A Snow Blowing Snow
6:23 PM 1.4 °F -21.9 °F -7.6 °F 66% 29.78 in 8.0 mi WNW 24.2 mph 33.4 mph N/A Snow Blowing Snow
6:53 PM 1.0 °F -22.4 °F -8.0 °F 66% 29.86 in 8.0 mi WNW 24.2 mph 34.5 mph N/A Snow Blowing Snow
7:16 PM 1.4 °F -21.0 °F -7.6 °F 66% 29.85 in 8.0 mi WNW 21.9 mph 29.9 mph N/A Snow Blowing Snow
7:50 PM -0.4 °F -23.3 °F -7.6 °F 72% 29.88 in 8.0 mi WNW 21.9 mph 33.4 mph N/A Snow Blowing Snow
7:53 PM -0.0 °F -23.8 °F -8.0 °F 69% 29.94 in 8.0 mi WNW 24.2 mph 38.0 mph N/A Snow Blowing Snow
8:24 PM -0.4 °F -23.3 °F -9.4 °F 66% 29.91 in 4.0 mi NW 21.9 mph 35.7 mph N/A Snow Blowing Snow
8:53 PM -0.9 °F -25.5 °F -11.0 °F 62% 29.99 in 4.0 mi NW 25.3 mph 32.2 mph N/A Snow Blowing Snow
9:53 PM -2.0 °F -26.4 °F -11.9 °F 63% 30.05 in 7.0 mi WNW 24.2 mph 33.4 mph N/A   Clear
10:53 PM -4.0 °F -25.8 °F -14.1 °F 62% 30.09 in 10.0 mi WNW 17.3 mph 27.6 mph N/A   Partly Cloudy
11:19 PM -5.8 °F -29.9 °F -14.8 °F 65% 30.06 in 4.0 mi WNW 20.7 mph 29.9 mph N/A   Haze
11:53 PM -6.0 °F -31.7 °F -17.0 °F 59% 30.13 in 6.0 mi WNW 24.2 mph 29.9 mph N/A   Haze